Change the Weather History Date:

Tuesday, May 21, 2013

  Actual Average Record
Temperature  
Mean Temperature 44 °F -  
Max Temperature 48 °F 65 °F 89 °F (1974)
Min Temperature 42 °F 43 °F 27 °F (2002)
Degree Days  
Heating Degree Days 21    
Moisture  
Dew Point 45 °F    
Average Humidity 98    
Maximum Humidity 100    
Minimum Humidity 93    
Precipitation  
Precipitation 0.83 in - - ()
Sea Level Pressure  
Sea Level Pressure 29.72 in    
Wind  
Wind Speed 16 mph (East)    
Max Wind Speed 21 mph    
Max Gust Speed 30 mph    
Visibility 1 miles    
Events Fog , Rain , Thunderstorm    
Averages and records for this station are not official NWS values.
T = Trace of Precipitation, MM = Missing Value Source: NWS Daily Summary

Daily Weather History Graph

Daily Weather History Graph

Search for Another Location

Airport or City:

Trip Planner

Search our weather history database for the weather conditions in past years. The results will help you decide how hot, cold, wet, or windy it might be!

Date:

Astronomy

May. 21, 2013 Rise Set
Actual Time 6:10 AM EDT 9:30 PM EDT
Civil Twilight 5:33 AM EDT 10:08 PM EDT
Nautical Twilight 4:45 AM EDT 10:57 PM EDT
Astronomical Twilight 3:42 AM EDT 12:00 AM EDT
Moon 5:30 PM EDT (5/21) 3:54 AM EDT (5/21)
Length of Visible Light 16h 34m
Length of Day
15h 19m
Waxing Gibbous, 84% of the Moon is Illuminated
May 21
Waxing Gibbous
May 25
Full
May 31
Last Quarter
Jun 8
New
Jun 16
First Quarter

Hourly Weather History & Observations

Time (EDT) Temp. Windchill Dew Point Humidity Pressure Visibility Wind Dir Wind Speed Gust Speed Precip Events Conditions
12:05 AM 46.4 °F 38.7 °F 44.6 °F 93% 29.75 in 2.5 mi East 20.7 mph 26.5 mph N/A   Overcast
12:21 AM 46.4 °F 39.0 °F 44.6 °F 93% 29.76 in 1.5 mi East 19.6 mph 29.9 mph N/A   Overcast
12:46 AM 46.4 °F 39.5 °F 44.6 °F 93% 29.75 in 0.5 mi East 17.3 mph 26.5 mph N/A Fog Fog
12:53 AM 46.0 °F 40.2 °F 45.0 °F 96% 29.77 in 0.5 mi East 12.7 mph 26.5 mph N/A Fog Fog
1:05 AM 46.4 °F 39.8 °F 44.6 °F 93% 29.76 in 0.2 mi East 16.1 mph 24.2 mph N/A Fog Fog
1:34 AM 44.6 °F 38.1 °F 44.6 °F 100% 29.75 in 0.2 mi East 13.8 mph 24.2 mph N/A Fog Fog
1:53 AM 45.0 °F 38.2 °F 44.1 °F 97% 29.77 in 0.2 mi East 15.0 mph 24.2 mph N/A Fog Fog
2:44 AM 44.6 °F 37.8 °F 44.6 °F 100% 29.73 in 0.2 mi East 15.0 mph 23.0 mph N/A Fog Fog
2:53 AM 44.1 °F 37.4 °F 44.1 °F 100% 29.74 in 0.2 mi East 13.8 mph 23.0 mph N/A Fog Fog
3:53 AM 44.1 °F 36.2 °F 43.0 °F 96% 29.73 in 0.2 mi East 18.4 mph 24.2 mph N/A Fog Fog
4:03 AM 42.8 °F 34.8 °F 42.8 °F 100% 29.71 in 0.2 mi East 17.3 mph 24.2 mph N/A Fog Fog
4:53 AM 43.0 °F 35.7 °F 43.0 °F 100% 29.71 in 0.2 mi East 15.0 mph - N/A Fog Fog
5:53 AM 44.1 °F 36.5 °F 43.0 °F 96% 29.72 in 0.2 mi East 17.3 mph 24.2 mph 0.01 in Fog Fog
6:02 AM 44.6 °F 38.1 °F 42.8 °F 93% 29.70 in 0.2 mi East 13.8 mph 21.9 mph N/A Fog Fog
6:14 AM 44.6 °F 37.8 °F 44.6 °F 100% 29.70 in 0.5 mi East 15.0 mph - N/A Fog Fog
6:31 AM 44.6 °F 37.8 °F 42.8 °F 93% 29.73 in 0.2 mi East 15.0 mph 23.0 mph N/A Fog , Thunderstorm Fog
6:44 AM 42.8 °F 35.1 °F 42.8 °F 100% 29.72 in 0.8 mi East 16.1 mph 23.0 mph 0.02 in Rain , Thunderstorm Light Rain
6:51 AM 42.8 °F 35.1 °F 42.8 °F 100% 29.72 in 2.0 mi East 16.1 mph 24.2 mph 0.05 in Rain , Thunderstorm Rain
6:53 AM 43.0 °F 35.7 °F 43.0 °F 100% 29.74 in 2.0 mi East 15.0 mph 24.2 mph 0.07 in Rain , Thunderstorm Thunderstorms and Rain
7:10 AM 44.6 °F 38.4 °F 44.6 °F 100% 29.71 in 5.0 mi East 12.7 mph - 0.04 in Rain , Thunderstorm Light Rain
7:19 AM 44.6 °F 37.4 °F 44.6 °F 100% 29.71 in 6.0 mi ENE 16.1 mph - 0.05 in Rain Light Rain
7:36 AM 44.6 °F 37.2 °F 42.8 °F 93% 29.69 in 2.5 mi ENE 17.3 mph 21.9 mph 0.12 in Rain Rain
7:53 AM 44.1 °F 36.8 °F 43.0 °F 96% 29.70 in 2.5 mi ENE 16.1 mph - 0.17 in Rain Light Rain
8:10 AM 44.6 °F 37.2 °F 42.8 °F 93% 29.68 in 0.8 mi East 17.3 mph 26.5 mph 0.02 in Rain Light Rain
8:22 AM 44.6 °F 37.2 °F 44.6 °F 100% 29.68 in 0.2 mi East 17.3 mph 25.3 mph 0.02 in Fog , Rain Light Rain
8:37 AM 44.6 °F 37.8 °F 44.6 °F 100% 29.67 in 0.2 mi ENE 15.0 mph - 0.03 in Fog , Rain Light Rain
8:53 AM 45.0 °F 38.9 °F 45.0 °F 100% 29.70 in 0.2 mi East 12.7 mph 20.7 mph 0.04 in Fog , Rain Light Rain
9:04 AM 44.6 °F 36.9 °F 44.6 °F 100% 29.67 in 0.2 mi East 18.4 mph 28.8 mph 0.01 in Fog , Rain Light Rain
9:30 AM 46.4 °F 40.1 °F 44.6 °F 93% 29.68 in 0.8 mi East 15.0 mph 24.2 mph 0.04 in Rain Rain
9:53 AM 46.0 °F 39.6 °F 45.0 °F 96% 29.70 in 0.5 mi East 15.0 mph 23.0 mph 0.07 in Fog , Rain Light Rain
10:11 AM 46.4 °F 39.5 °F 44.6 °F 93% 29.68 in 0.2 mi ENE 17.3 mph 24.2 mph 0.01 in Fog , Rain Light Rain
10:41 AM 46.4 °F 39.2 °F 46.4 °F 100% 29.68 in 1.0 mi East 18.4 mph 28.8 mph 0.20 in Rain Heavy Rain
10:51 AM 46.4 °F 40.1 °F 46.4 °F 100% 29.68 in 3.0 mi East 15.0 mph 23.0 mph 0.22 in Rain Light Rain
10:53 AM 46.9 °F - 46.0 °F 97% 29.70 in 4.0 mi East 12.7 mph 23.0 mph 0.22 in Rain Light Rain
10:59 AM 46.4 °F 40.4 °F 46.4 °F 100% 29.69 in 1.5 mi East 13.8 mph 21.9 mph 0.09 in Rain Heavy Rain
11:20 AM 46.4 °F 40.1 °F 44.6 °F 93% 29.69 in 3.0 mi East 15.0 mph 23.0 mph 0.19 in Rain Light Rain
11:29 AM 46.4 °F 40.4 °F 44.6 °F 93% 29.68 in 4.0 mi ENE 13.8 mph 24.2 mph 0.20 in Rain Light Rain
11:53 AM 45.0 °F 38.2 °F 45.0 °F 100% 29.70 in 4.0 mi East 15.0 mph 26.5 mph 0.20 in   Overcast
11:56 AM 44.6 °F 38.4 °F 44.6 °F 100% 29.68 in 1.8 mi East 12.7 mph 26.5 mph N/A   Overcast
12:05 PM 44.6 °F 37.4 °F 44.6 °F 100% 29.69 in 0.2 mi ENE 16.1 mph 21.9 mph N/A Fog Fog
12:36 PM 44.6 °F 37.4 °F 44.6 °F 100% 29.68 in 0.2 mi East 16.1 mph 23.0 mph N/A Fog Fog
12:53 PM 45.0 °F 38.2 °F 45.0 °F 100% 29.70 in 0.2 mi ENE 15.0 mph 25.3 mph N/A Fog Fog
1:53 PM 46.0 °F 39.0 °F 46.0 °F 100% 29.70 in 0.2 mi East 17.3 mph 23.0 mph 0.01 in Fog Fog
2:14 PM 46.4 °F 40.1 °F 46.4 °F 100% 29.68 in 0.2 mi East 15.0 mph - N/A Fog Fog
2:53 PM 46.9 °F - 46.9 °F 100% 29.70 in 0.2 mi ENE 17.3 mph 26.5 mph N/A Fog Fog
3:53 PM 46.9 °F - 46.9 °F 100% 29.71 in 0.2 mi East 19.6 mph 25.3 mph N/A Fog Fog
4:53 PM 46.9 °F - 46.9 °F 100% 29.72 in 0.2 mi East 17.3 mph 26.5 mph N/A Fog Fog
5:45 PM 46.4 °F 41.1 °F 46.4 °F 100% 29.71 in 0.5 mi East 11.5 mph 27.6 mph N/A Fog Fog
5:53 PM 46.9 °F - 46.9 °F 100% 29.73 in 0.5 mi East 13.8 mph 21.9 mph N/A Fog Fog
6:53 PM 46.9 °F - 46.0 °F 97% 29.74 in 0.5 mi East 16.1 mph 23.0 mph 0.00 in Fog , Rain Light Rain
7:24 PM 46.4 °F 39.8 °F 46.4 °F 100% 29.72 in 1.0 mi East 16.1 mph 23.0 mph 0.01 in   Overcast
7:53 PM 46.9 °F - 46.9 °F 100% 29.75 in 1.0 mi East 10.4 mph 19.6 mph 0.01 in Rain Light Rain
8:38 PM 46.4 °F 41.1 °F 46.4 °F 100% 29.74 in 0.8 mi ENE 11.5 mph - 0.01 in   Overcast
8:53 PM 46.9 °F - 46.9 °F 100% 29.76 in 0.8 mi ENE 12.7 mph - 0.01 in Rain Light Rain
9:04 PM 46.4 °F 41.1 °F 46.4 °F 100% 29.74 in 1.0 mi ENE 11.5 mph - 0.01 in Rain Light Rain
9:40 PM 46.4 °F 40.7 °F 46.4 °F 100% 29.74 in 2.5 mi ENE 12.7 mph 20.7 mph 0.01 in   Overcast
9:53 PM 46.0 °F 40.2 °F 45.0 °F 96% 29.77 in 2.0 mi ENE 12.7 mph - 0.02 in   Overcast
10:53 PM 46.0 °F 40.2 °F 45.0 °F 96% 29.78 in 3.0 mi ENE 12.7 mph 20.7 mph N/A   Overcast
11:10 PM 46.4 °F 41.1 °F 44.6 °F 93% 29.77 in 2.5 mi ENE 11.5 mph 23.0 mph N/A   Overcast
11:25 PM 46.4 °F 40.1 °F 44.6 °F 93% 29.76 in 1.8 mi ENE 15.0 mph 19.6 mph N/A   Overcast
11:51 PM 46.4 °F 41.1 °F 44.6 °F 93% 29.77 in 2.0 mi ENE 11.5 mph 20.7 mph N/A   Overcast